Date String (YYYY-MM-DD hh:mm:ss) UTC,Instrument flags,Ambient pressure (hPa),Sample flow (lpm),Bypass flow (lpm),Sample temperature (°C),Ambient temperature (°C),ASC tube jacket temperature (°C),LED temperature (°C),Box temperature (°C),Sample RH (%),Span deviation,Mass concentration (μg/m³),Mass concentration (μg/m³),Mass concentration (μg/m³)
DateTimeUTC,F1_M11,P_M11,Q1_M11,Q2_M11,T1_M11,T2_M11,T3_M11,T4_M11,T5_M11,U1_M11,ZSPAN_M11,X0_M11,X2_M11,X1_M11
2022-10-19 09:00:00,,0832.6,5.00,0.00,27.2,25.6,00.0,36.1,29.0,08.4,0000.0,0003.28,0001.58,0001.15
2022-10-19 09:01:00,,0832.6,5.02,0.00,27.2,25.6,00.0,36.1,29.0,08.5,0000.0,0003.31,0001.54,0001.15
2022-10-19 09:02:00,,0832.6,5.00,0.00,27.2,25.6,00.0,36.1,29.0,08.3,0000.0,0004.63,0001.53,0001.14
2022-10-19 09:03:00,,0832.6,4.99,0.00,27.2,25.6,00.0,36.1,29.0,08.3,0000.0,0004.88,0001.51,0001.12
2022-10-19 09:04:00,,0832.6,4.99,0.00,27.2,25.6,00.0,36.1,29.1,08.5,0000.0,0004.80,0001.48,0001.12
2022-10-19 09:05:00,,0832.6,4.98,0.00,27.2,25.6,00.0,36.1,29.1,08.5,0000.0,0004.81,0001.47,0001.12
2022-10-19 09:06:00,,0832.6,5.00,0.00,27.2,25.7,00.0,36.1,29.1,08.6,0000.0,0004.23,0001.48,0001.12
2022-10-19 09:07:00,,0832.6,5.01,0.00,27.2,25.7,00.0,36.1,29.1,08.6,0000.0,0004.19,0001.48,0001.13
2022-10-19 09:08:00,,0832.6,4.99,0.00,27.2,25.7,00.0,36.1,29.1,08.6,0000.0,0004.06,0001.49,0001.15
2022-10-19 09:09:00,,0832.6,4.99,0.00,27.2,25.7,00.0,36.1,29.1,08.8,0000.0,0004.13,0001.49,0001.16
2022-10-19 09:10:00,,0832.6,5.02,0.00,27.2,25.7,00.0,36.1,29.1,09.1,0000.0,0004.11,0001.47,0001.17
2022-10-19 09:11:00,,0832.6,5.01,0.00,27.2,25.7,00.0,36.1,29.0,08.9,0000.0,0004.15,0001.50,0001.18
2022-10-19 09:12:00,,0832.6,5.01,0.00,27.2,25.7,00.0,36.1,29.0,08.8,0000.0,0004.05,0001.49,0001.18
2022-10-19 09:13:00,,0832.6,4.98,0.00,27.2,25.7,00.0,36.1,29.0,08.7,0000.0,0003.12,0001.49,0001.19
2022-10-19 09:14:00,,0832.6,4.99,0.00,27.2,25.7,00.0,36.1,29.0,08.7,0000.0,0002.38,0001.50,0001.19
2022-10-19 09:15:00,,0832.5,5.01,0.00,27.2,25.6,00.0,36.1,29.0,08.6,0000.0,0002.42,0001.55,0001.21
2022-10-19 09:16:00,,0832.6,5.00,0.00,27.2,25.6,00.0,36.1,29.0,08.5,0000.0,0002.34,0001.53,0001.19
2022-10-19 09:17:00,,0832.5,5.02,0.00,27.2,25.5,00.0,36.1,29.0,08.5,0000.0,0002.21,0001.50,0001.18
2022-10-19 09:18:00,,0832.6,4.99,0.00,27.2,25.5,00.0,36.1,29.0,08.6,0000.0,0002.03,0001.48,0001.18
2022-10-19 09:19:00,,0832.5,4.99,0.00,27.2,25.5,00.0,36.1,29.0,08.6,0000.0,0002.55,0001.47,0001.17
2022-10-19 09:20:00,,0832.5,5.01,0.00,27.2,25.5,00.0,36.1,29.0,08.6,0000.0,0003.57,0001.44,0001.15
2022-10-19 09:21:00,,0832.5,5.00,0.00,27.2,25.5,00.0,36.1,28.9,08.5,0000.0,0003.58,0001.46,0001.15
2022-10-19 09:22:00,,0832.5,5.00,0.00,27.2,25.5,00.0,36.1,28.8,08.5,0000.0,0003.56,0001.44,0001.13
2022-10-19 09:23:00,,0832.5,5.00,0.00,27.1,25.5,00.0,36.1,28.9,08.6,0000.0,0003.60,0001.44,0001.12
2022-10-19 09:24:00,,0832.5,5.00,0.00,27.1,25.5,00.0,36.1,28.9,08.6,0000.0,0003.66,0001.45,0001.11
2022-10-19 09:25:00,,0832.6,4.99,0.00,27.1,25.5,00.0,36.0,28.9,08.6,0000.0,0003.67,0001.44,0001.10
2022-10-19 09:26:00,,0832.6,4.97,0.00,27.1,25.5,00.0,36.0,29.0,08.6,0000.0,0003.65,0001.36,0001.09
2022-10-19 09:27:00,,0832.6,5.00,0.00,27.1,25.5,00.0,36.0,29.0,08.6,0000.0,0003.71,0001.37,0001.09
2022-10-19 09:28:00,,0832.6,5.00,0.00,27.1,25.5,00.0,36.0,29.0,08.6,0000.0,0003.71,0001.36,0001.09
2022-10-19 09:29:00,,0832.6,4.99,0.00,27.1,25.5,00.0,36.0,28.9,08.6,0000.0,0004.55,0001.34,0001.09
2022-10-19 09:30:00,,0832.6,5.00,0.00,27.1,25.5,00.0,36.0,28.9,08.7,0000.0,0004.31,0001.35,0001.09
2022-10-19 09:31:00,,0832.6,5.00,0.00,27.1,25.5,00.0,36.0,29.0,08.8,0000.0,0003.44,0001.36,0001.09
2022-10-19 09:32:00,,0832.6,5.01,0.00,27.1,25.5,00.0,36.0,28.9,08.7,0000.0,0003.40,0001.37,0001.09
2022-10-19 09:33:00,,0832.6,5.01,0.00,27.1,25.5,00.0,36.0,28.9,08.5,0000.0,0003.53,0001.38,0001.09
2022-10-19 09:34:00,,0832.6,5.00,0.00,27.1,25.5,00.0,36.0,28.9,08.6,0000.0,0003.79,0001.42,0001.09
2022-10-19 09:35:00,,0832.6,4.98,0.00,27.1,25.5,00.0,36.0,28.9,08.7,0000.0,0003.74,0001.42,0001.10
2022-10-19 09:36:00,,0832.5,5.00,0.00,27.1,25.5,00.0,36.0,28.9,08.7,0000.0,0003.73,0001.44,0001.11
2022-10-19 09:37:00,,0832.5,5.00,0.00,27.1,25.4,00.0,36.0,28.9,08.6,0000.0,0003.74,0001.49,0001.12
2022-10-19 09:38:00,,0832.5,4.98,0.00,27.1,25.4,00.0,36.0,28.9,08.6,0000.0,0003.70,0001.49,0001.12
2022-10-19 09:39:00,,0832.5,5.01,0.00,27.1,25.4,00.0,36.0,28.9,08.6,0000.0,0003.87,0001.52,0001.14
2022-10-19 09:40:00,,0832.4,5.01,0.00,27.1,25.4,00.0,36.0,28.9,08.6,0000.0,0003.02,0001.55,0001.16
2022-10-19 09:41:00,,0832.4,4.98,0.00,27.1,25.4,00.0,36.0,28.9,08.5,0000.0,0002.93,0001.56,0001.17
2022-10-19 09:42:00,,0832.3,5.01,0.00,27.1,25.4,00.0,36.0,28.8,08.6,0000.0,0002.82,0001.57,0001.18
2022-10-19 09:43:00,,0832.3,5.00,0.00,27.1,25.4,00.0,36.0,28.8,08.6,0000.0,0002.73,0001.57,0001.18
2022-10-19 09:44:00,,0832.3,5.01,0.00,27.0,25.4,00.0,35.9,28.8,08.6,0000.0,0002.72,0001.56,0001.18
2022-10-19 09:45:00,,0832.3,4.99,0.00,27.0,25.3,00.0,35.9,28.8,08.5,0000.0,0002.35,0001.49,0001.18
2022-10-19 09:46:00,,0832.4,4.99,0.00,27.0,25.3,00.0,35.9,28.8,08.5,0000.0,0002.36,0001.49,0001.17
2022-10-19 09:47:00,,0832.4,5.01,0.00,27.0,25.3,00.0,35.9,28.8,08.4,0000.0,0002.35,0001.46,0001.16
2022-10-19 09:48:00,,0832.4,4.99,0.00,27.0,25.3,00.0,35.9,28.8,08.4,0000.0,0002.24,0001.41,0001.15
2022-10-19 09:49:00,,0832.3,5.01,0.00,27.0,25.3,00.0,35.9,28.8,08.3,0000.0,0002.24,0001.41,0001.15
2022-10-19 09:50:00,,0832.3,5.00,0.00,27.0,25.3,00.0,35.9,28.8,08.4,0000.0,0002.15,0001.41,0001.14
2022-10-19 09:51:00,,0832.2,4.96,0.00,27.0,25.3,00.0,35.9,28.8,08.4,0000.0,0002.08,0001.38,0001.12
2022-10-19 09:52:00,,0832.2,5.00,0.00,27.0,25.3,00.0,35.9,28.8,08.3,0000.0,0002.02,0001.36,0001.11
2022-10-19 09:53:00,,0832.3,5.00,0.00,27.0,25.3,00.0,35.9,28.7,08.3,0000.0,0002.11,0001.33,0001.10
2022-10-19 09:54:00,,0832.3,5.00,0.00,27.0,25.3,00.0,35.9,28.7,08.3,0000.0,0002.90,0001.32,0001.09
2022-10-19 09:55:00,,0832.3,4.99,0.00,26.9,25.2,00.0,35.9,28.6,08.3,0000.0,0003.43,0001.32,0001.08
2022-10-19 09:56:00,,0832.2,5.00,0.00,26.9,25.2,00.0,35.8,28.7,08.2,0000.0,0003.55,0001.34,0001.07
2022-10-19 09:57:00,,0832.2,5.01,0.00,26.9,25.2,00.0,35.8,28.7,08.2,0000.0,0003.49,0001.30,0001.05
2022-10-19 09:58:00,,0832.2,4.98,0.00,26.9,25.2,00.0,35.8,28.6,08.3,0000.0,0003.64,0001.29,0001.05
2022-10-19 09:59:00,,0832.2,5.00,0.00,26.9,25.2,00.0,35.8,28.6,08.4,0000.0,0003.76,0001.29,0001.04
